This is the latest recevied weather packets stored in our database for station/object 9W2CHF-4. If no packets are shown the sender has not sent any weather packets the latest 10 day(s).
| Time | Temp. | Humidity | Pressure | Rain* | Wind** | Luminosity | Snow |
|---|---|---|---|---|---|---|---|
| 1777406904 | 32.22° C | 68% | 1008.4 hPa | - | - | - | - |
| 1777406004 | 32.22° C | 68% | 1008.6 hPa | - | - | - | - |
| 1777405104 | 32.78° C | 67% | 1008.6 hPa | - | - | - | - |
| 1777404204 | 32.78° C | 67% | 1008.6 hPa | - | - | - | - |
| 1777403303 | 32.78° C | 68% | 1008.6 hPa | - | - | - | - |
| 1777402403 | 32.78° C | 67% | 1008.6 hPa | - | - | - | - |
| 1777401503 | 32.78° C | 67% | 1008.7 hPa | - | - | - | - |
| 1777400603 | 32.78° C | 66% | 1008.9 hPa | - | - | - | - |
| 1777399703 | 32.78° C | 68% | 1009 hPa | - | - | - | - |
| 1777398803 | 33.33° C | 68% | 1009.3 hPa | - | - | - | - |
| 1777397903 | 33.33° C | 68% | 1009.3 hPa | - | - | - | - |
| 1777397003 | 33.33° C | 68% | 1009.7 hPa | - | - | - | - |
| 1777396102 | 33.33° C | 69% | 1009.9 hPa | - | - | - | - |
| 1777395202 | 33.89° C | 75% | 1010.2 hPa | - | - | - | - |
| 1777394302 | 33.89° C | 77% | 1010.2 hPa | - | - | - | - |
| 1777393402 | 33.89° C | 78% | 1010.5 hPa | - | - | - | - |
| 1777392502 | 33.89° C | 79% | 1010.6 hPa | - | - | - | - |
| 1777391601 | 34.44° C | 75% | 1010.7 hPa | - | - | - | - |
| 1777390701 | 34.44° C | 77% | 1010.6 hPa | - | - | - | - |
| 1777389801 | 34.44° C | 76% | 1010.4 hPa | - | - | - | - |
| 1777388901 | 33.89° C | 78% | 1010.4 hPa | - | - | - | - |
| 1777388000 | 33.89° C | 77% | 1010.3 hPa | - | - | - | - |
| 1777387100 | 33.89° C | 79% | 1010.1 hPa | - | - | - | - |
| 1777386200 | 33.89° C | 77% | 1010 hPa | - | - | - | - |
| 1777385300 | 33.89° C | 76% | 1009.7 hPa | - | - | - | - |
* Rain since midnight (hover to see other rain measurements)
** Current wind speed in m/s (hover to see current wind gust speed)